Temp_Advection
nan nan nan nan nan nan nan nan nan nan nan nan nan nan nan nan nan nan nan nan nan nan nan nan nan nan nan nan nan nan nan nan nan nan nan nan nan nan nan nan nan nan nan
nan 1 1 1 1 -0 1 1 1 2 2 1 1 1 1 1 1 1 1 0 1 0 0 0 0 0 0 0 -0 -0 -0 -0 -0 -1 -0 0 0 0 0 -0 -0 -0 nan
nan 1 0 1 1 1 0 0 1 2 2 1 1 1 1 1 1 0 0 0 0 -0 0 -0 -0 0 0 -0 0 0 -0 -0 -0 -0 -0 -0 0 0 0 0 -0 -0 nan
nan 0 0 1 1 -0 -0 1 2 3 2 1 1 2 1 1 0 0 1 1 0 -0 -0 0 0 0 -0 -0 0 -0 -0 -0 -0 -0 -0 -0 -0 -0 -0 -0 -0 -0 nan
nan 1 1 1 -0 -1 1 2 2 2 1 1 2 1 0 0 0 0 1 0 -0 -0 0 0 0 0 -0 0 0 0 -0 -0 -0 -1 -1 -1 -0 -0 -0 -1 -1 -1 nan
nan 1 1 1 -1 -1 0 1 2 2 2 1 1 0 0 0 0 1 1 0 -0 0 0 0 0 -0 0 -0 -0 0 0 0 0 0 -1 -1 -1 -1 -1 -1 -1 -1 nan
nan 1 1 1 -0 2 3 2 2 2 1 0 -0 0 1 1 1 1 0 0 0 0 0 0 0 0 0 0 -0 -1 -1 -1 -0 1 0 -1 -1 -1 -1 -1 -1 -1 nan
nan 1 2 1 2 3 2 3 2 0 0 -0 0 1 1 1 0 1 0 0 0 0 0 0 0 0 -0 0 1 -0 -0 -0 -1 -0 1 0 0 0 -0 -1 -1 -1 nan
nan 2 2 1 1 -0 1 1 1 0 -0 1 2 1 1 0 0 0 0 0 0 0 0 -0 0 0 -0 -0 1 1 -0 -0 0 -1 -1 -1 1 1 1 -1 -1 -1 nan
nan 2 2 1 0 0 -0 0 0 1 1 2 1 1 0 0 0 0 0 0 0 0 0 -0 -0 -0 -0 -0 1 1 0 0 0 -0 -0 0 -0 -0 0 -0 -1 -1 nan
nan 2 1 0 0 0 -0 1 1 1 1 1 1 0 1 1 0 -0 0 0 0 0 0 0 0 -0 -0 -0 0 0 0 1 1 0 -0 0 0 0 0 0 0 0 nan
nan 1 1 0 0 0 1 1 1 1 0 0 0 0 1 1 -0 0 0 0 0 0 0 0 -0 -0 -0 -0 -0 -0 0 0 0 -0 -0 -0 0 0 0 0 0 0 nan
nan 1 1 0 0 1 1 1 1 1 0 0 0 1 1 0 0 0 0 0 1 0 0 0 -0 -0 -0 -0 -1 -1 0 0 -0 -0 -0 -0 0 0 0 -0 0 0 nan
nan 1 0 0 1 1 1 0 0 0 0 0 1 1 0 0 0 0 0 0 1 0 0 0 -0 0 -0 -0 0 -0 -0 0 0 -0 -0 -0 -0 -0 0 -0 -0 0 nan
nan 0 0 0 0 0 0 1 1 0 0 1 0 -0 -0 0 -0 0 0 0 0 0 0 0 -0 0 0 0 0 0 0 0 0 0 -0 -0 -0 -0 -0 -0 -0 -0 nan
nan 0 0 0 0 0 0 0 1 1 1 1 0 0 0 0 0 0 0 0 0 0 0 -0 0 0 0 0 0 0 0 0 0 0 -0 -0 -0 -0 -0 -0 -0 -0 nan
nan -0 0 0 0 1 1 1 1 1 1 1 1 1 1 0 1 1 1 0 0 0 -0 -0 0 0 0 0 0 0 0 0 0 -0 -0 -0 -0 -0 -1 -1 -0 -1 nan
nan -0 -0 -0 0 0 1 1 1 0 0 1 1 0 1 0 0 0 0 0 -0 0 -0 -0 0 0 0 0 0 0 0 0 0 -0 -0 -0 -0 -0 -0 -1 -0 -1 nan
nan 0 0 0 0 0 0 0 0 0 0 0 0 0 0 0 0 0 0 -0 -0 0 0 0 0 1 0 0 0 0 0 0 0 -0 -0 -0 -0 -0 -0 -0 -0 -0 nan
nan 0 0 0 0 1 0 0 0 0 0 0 -0 0 0 0 -0 0 0 0 0 0 0 0 0 1 1 1 0 0 -0 0 0 0 -0 -0 -0 -0 -0 -0 -1 -0 nan
nan 0 0 0 0 1 0 0 0 0 0 0 0 0 0 0 0 0 0 0 0 0 0 0 0 1 1 0 0 0 0 0 -0 -0 -0 -0 -0 -0 -0 -0 -1 -1 nan
nan 0 0 0 1 0 0 0 0 0 0 0 0 0 0 0 0 0 0 0 1 1 0 0 0 0 1 1 0 0 0 -0 -0 -0 0 0 -0 -0 -0 -1 -1 -1 nan
nan 0 0 1 0 0 0 0 0 0 0 0 0 0 0 0 0 0 0 1 1 0 0 0 1 1 1 1 1 1 1 1 0 -0 0 1 0 -0 -0 -1 -1 -1 nan
nan 1 1 0 0 0 0 0 0 0 0 0 0 0 0 0 0 0 1 0 0 0 -0 -0 0 1 1 1 1 1 1 1 1 1 0 1 2 1 -0 -0 -1 -1 nan
nan 0 0 0 0 0 0 0 0 0 0 0 0 0 0 0 0 1 0 -0 0 1 0 -0 0 0 0 0 0 0 0 0 0 0 0 1 1 1 0 -1 -1 -1 nan
nan nan nan nan nan nan nan nan nan nan nan nan nan nan nan nan nan nan nan nan nan nan nan nan nan nan nan nan nan nan nan nan nan nan nan nan nan nan nan nan nan nan nan
Wind_Speed
33 36 40 41 36 34 37 36 33 30 30 27 21 18 20 18 16 13 12 9 8 7 6 6 5 3 2 2 2 2 4 7 10 12 15 15 17 19 18 19 20 20 21
31 33 35 37 36 38 39 35 36 33 26 23 22 24 20 17 15 13 11 9 7 7 6 5 4 3 2 3 2 3 4 7 9 15 15 16 17 19 19 20 20 20 22
26 31 32 32 35 38 39 40 36 31 27 28 25 23 20 18 16 13 11 9 8 8 6 6 5 4 3 4 3 4 5 7 9 13 17 16 18 19 19 20 21 23 22
26 29 31 33 33 38 41 41 36 30 31 25 27 24 20 18 15 12 10 10 9 7 7 5 5 4 4 6 4 4 5 8 9 13 16 18 19 18 20 23 25 23 25
26 30 32 30 31 41 42 40 33 32 32 29 25 23 20 17 15 12 11 10 9 7 6 6 7 8 7 7 6 6 7 7 10 13 16 18 19 21 22 23 26 28 26
26 27 31 37 38 40 41 41 35 33 32 31 27 22 20 16 16 13 13 10 8 5 5 6 6 6 8 9 10 11 11 11 14 13 16 18 19 21 22 24 27 29 34
25 26 28 32 42 47 46 41 37 39 37 31 26 22 19 21 15 15 12 10 7 6 7 6 5 7 8 8 10 13 12 14 14 17 17 18 21 21 24 27 26 28 31
26 29 31 30 31 36 46 44 42 40 35 29 24 27 24 20 17 14 11 8 6 7 7 6 6 6 8 9 10 11 12 13 15 16 17 19 21 24 24 25 28 30 30
27 30 34 40 41 43 45 43 41 36 30 30 30 26 24 20 17 14 11 8 6 5 5 6 6 7 11 12 12 11 13 14 16 20 22 24 24 25 25 24 24 26 33
24 30 33 40 44 44 45 38 35 32 34 32 27 24 23 19 16 15 11 7 7 6 6 5 9 9 13 14 13 13 13 14 16 19 23 20 20 20 21 19 22 25 29
28 33 37 38 38 40 36 35 36 36 32 29 26 24 20 18 17 14 12 9 7 6 7 6 5 14 14 13 14 14 16 21 21 20 18 19 20 19 20 21 22 23 28
27 28 30 31 33 37 36 38 35 33 31 28 25 22 20 19 18 14 12 11 10 7 8 7 7 13 14 14 13 16 19 22 15 17 18 19 21 21 22 23 25 25 27
19 23 26 30 34 38 38 34 33 31 28 26 23 21 18 16 16 15 13 10 10 9 7 9 11 13 14 12 17 18 18 13 15 17 19 20 22 24 25 24 24 26 28
22 26 29 34 37 31 29 31 30 28 24 22 23 18 16 15 12 10 11 8 11 8 10 7 11 11 12 13 13 13 13 14 16 18 20 22 22 23 23 23 25 26 29
24 29 32 32 29 31 28 25 21 17 18 20 17 16 17 13 13 13 10 9 7 9 10 7 8 9 11 12 13 14 15 16 18 19 21 22 23 23 24 23 24 27 28
26 30 29 29 29 27 25 23 20 18 19 18 15 14 13 14 14 13 13 11 11 8 5 6 10 11 12 13 14 16 16 18 19 21 21 22 23 24 25 24 24 26 29
26 29 30 28 27 24 22 21 23 19 18 15 14 14 12 12 11 11 10 8 10 8 6 9 11 12 13 14 16 17 19 19 21 20 21 22 22 23 23 24 25 26 28
26 26 27 25 23 21 19 17 16 14 13 12 11 10 11 10 8 10 11 8 9 9 7 11 12 13 14 15 16 18 19 20 20 20 21 20 21 22 23 24 25 27 28
25 26 24 22 20 19 17 14 12 11 11 10 9 11 10 8 7 11 12 9 10 11 12 13 14 15 16 16 17 18 19 20 20 20 20 20 21 21 23 24 26 27 28
24 21 20 20 19 16 13 12 12 11 11 10 10 9 10 11 15 13 11 11 11 12 13 13 14 15 16 16 16 18 19 20 19 19 20 20 19 21 23 24 25 27 27
20 20 17 16 15 13 12 12 11 10 10 10 10 11 14 10 10 11 12 11 12 12 13 14 15 15 15 15 17 18 19 19 18 19 19 19 20 22 22 23 24 25 27
18 17 16 14 13 13 11 11 10 10 10 9 9 12 11 11 10 11 11 12 12 13 14 13 13 13 15 16 18 18 18 19 18 18 20 20 21 21 22 23 24 25 27
15 16 15 14 13 13 12 10 10 9 9 9 9 9 8 9 11 11 11 12 14 16 16 18 17 18 19 21 21 21 20 19 20 22 23 23 22 22 22 23 24 26 27
15 15 14 13 12 11 10 10 9 10 9 9 9 10 10 10 11 11 14 14 16 17 19 21 22 22 23 24 24 23 23 24 24 26 26 26 26 23 21 23 24 25 29
15 14 13 12 11 11 10 10 9 9 9 9 9 9 10 10 12 12 13 17 19 20 20 23 23 23 24 24 24 23 24 24 24 25 26 26 26 25 22 22 24 27 29
13 13 12 11 10 10 10 10 9 9 10 9 9 10 10 11 11 12 14 19 20 21 22 22 22 23 23 23 24 23 23 24 24 24 25 25 25 20 20 23 25 27 29
Wind_Direction
219 214 215 215 210 209 214 214 213 210 209 208 204 219 217 212 206 203 204 199 196 202 195 193 200 215 223 249 270 300 294 286 293 301 302 309 311 311 312 314 318 314 314
218 216 214 212 209 212 213 211 211 210 204 208 220 220 212 208 203 202 197 192 191 192 196 192 209 236 239 255 285 285 287 292 297 302 309 312 311 309 312 316 314 313 312
217 214 210 206 204 209 207 211 207 201 218 219 213 212 207 202 198 197 199 195 194 199 193 196 224 224 223 244 281 280 308 303 306 302 310 313 309 311 313 314 314 311 313
209 209 212 204 203 207 211 211 204 221 212 219 210 207 202 198 200 203 205 202 204 210 216 222 235 229 240 273 277 303 302 306 308 310 310 310 307 311 315 317 312 313 312
217 205 202 204 202 210 210 205 214 204 222 207 200 198 201 199 203 200 208 204 212 222 233 234 237 243 263 274 275 285 310 306 312 313 311 307 307 315 317 315 310 311 312
219 218 202 198 204 210 205 205 207 209 199 197 193 195 198 199 211 212 215 216 226 236 234 237 261 271 288 294 295 297 300 307 309 311 305 301 307 311 311 310 309 312 311
216 213 212 202 205 209 204 207 203 197 193 193 195 200 206 209 215 211 214 231 244 242 227 233 256 274 288 289 303 304 307 304 304 306 299 298 303 308 308 307 305 302 301
214 205 203 200 195 191 198 198 194 192 193 195 198 209 204 212 210 216 216 230 246 246 240 249 264 268 282 284 290 292 296 296 299 300 286 291 301 303 301 299 300 300 299
212 205 199 204 198 199 198 191 188 190 189 198 201 195 196 210 214 217 218 227 221 214 240 263 264 278 282 287 297 294 293 300 308 304 298 304 301 297 297 299 299 298 299
211 203 200 203 206 202 194 186 184 188 194 193 190 198 201 207 213 216 223 228 212 211 223 254 280 273 288 296 301 299 304 303 303 298 299 303 304 302 301 296 295 293 296
204 206 200 201 203 199 190 185 188 188 185 184 189 191 195 206 212 218 233 232 226 222 223 235 250 282 296 299 305 304 302 309 308 311 307 303 302 301 298 293 289 286 291
213 211 208 205 202 186 184 187 185 181 180 184 186 189 194 199 220 227 240 233 228 228 228 239 259 286 300 304 305 305 310 313 311 307 307 304 301 300 299 294 293 289 289
208 200 195 189 184 182 186 179 179 180 181 182 187 192 192 196 214 236 244 245 238 211 222 238 269 291 299 314 308 307 313 314 309 308 308 304 301 301 303 304 298 295 296
182 177 180 180 180 179 177 178 177 180 184 190 192 188 191 197 198 220 221 229 226 231 246 278 291 299 305 317 325 316 311 309 307 310 306 303 304 304 303 304 301 302 301
175 175 177 178 174 170 171 172 179 188 200 198 195 190 193 197 203 199 192 197 213 229 237 273 288 288 295 297 299 304 308 309 307 307 305 307 305 305 304 305 301 304 302
175 175 174 172 169 167 166 169 182 194 200 203 205 213 216 213 222 217 217 227 229 242 268 272 280 285 290 295 299 304 305 307 306 303 307 305 304 305 304 304 305 303 303
171 172 170 169 167 172 174 175 180 184 193 205 221 222 217 217 208 213 221 221 243 268 269 279 280 285 290 294 297 299 302 302 303 307 302 302 303 303 305 306 306 305 304
178 171 166 169 174 172 172 175 182 184 186 190 190 196 201 203 206 201 218 241 244 277 271 277 280 283 286 290 292 295 299 302 305 303 301 304 304 304 305 305 305 305 306
170 168 171 171 172 177 176 174 167 167 175 178 183 193 201 217 218 216 240 236 247 257 267 274 279 282 284 285 289 294 299 302 300 304 304 303 303 304 303 303 304 305 306
167 164 168 172 174 178 177 168 170 174 178 186 189 195 207 192 202 229 243 245 252 263 269 275 280 283 281 284 290 296 301 301 301 302 301 302 303 302 302 304 305 306 307
163 166 174 175 178 178 174 173 174 177 184 190 196 202 201 204 221 231 240 248 258 264 270 276 282 279 280 287 292 296 297 299 300 301 303 303 301 302 304 302 304 305 306
170 171 175 176 176 174 171 172 176 180 184 189 200 228 227 222 228 238 245 253 260 266 273 278 279 278 281 288 295 297 299 300 301 302 302 302 303 303 303 303 304 306 308
174 175 174 174 172 175 170 175 176 182 191 199 209 221 237 227 236 241 253 259 266 279 283 290 290 292 294 297 300 302 301 302 301 303 305 306 304 302 302 302 305 306 307
175 179 176 172 169 170 175 179 185 191 199 208 216 225 229 236 242 250 257 263 279 288 291 296 299 299 300 302 304 305 303 304 305 307 307 307 305 304 300 300 304 307 308
182 176 174 175 179 175 183 186 195 203 210 217 225 229 235 242 247 257 262 280 290 293 293 298 300 302 304 306 306 306 306 306 306 307 307 308 306 304 300 301 304 306 308
183 184 185 176 178 182 187 194 202 210 216 226 231 234 239 245 250 259 275 288 293 298 300 299 302 304 306 307 307 309 308 307 307 307 307 308 307 302 300 300 304 308 310
Height
1423 1426 1430 1435 1442 1448 1452 1456 1462 1466 1468 1472 1479 1482 1484 1487 1491 1491 1490 1491 1493 1494 1495 1495 1495 1495 1495 1497 1495 1494 1496 1499 1498 1496 1494 1490 1486 1482 1476 1472 1468 1465 1461
1416 1422 1425 1429 1435 1440 1445 1450 1454 1459 1465 1470 1475 1479 1481 1484 1488 1489 1488 1488 1491 1492 1491 1492 1491 1491 1492 1495 1491 1490 1490 1491 1491 1491 1490 1485 1482 1479 1473 1468 1465 1462 1457
1411 1415 1419 1424 1427 1432 1437 1441 1447 1453 1459 1467 1471 1476 1479 1479 1483 1484 1486 1486 1488 1489 1487 1489 1487 1489 1491 1492 1487 1487 1486 1487 1486 1487 1483 1481 1478 1475 1469 1465 1461 1457 1453
1402 1406 1414 1416 1421 1425 1429 1434 1440 1445 1455 1462 1465 1472 1475 1477 1479 1482 1485 1485 1485 1483 1483 1482 1485 1486 1489 1487 1486 1482 1482 1482 1481 1481 1478 1477 1476 1471 1465 1460 1455 1452 1447
1400 1397 1401 1412 1415 1417 1423 1429 1435 1442 1450 1457 1462 1467 1473 1475 1477 1477 1484 1484 1482 1479 1478 1479 1481 1481 1481 1481 1482 1481 1479 1477 1477 1475 1474 1473 1472 1465 1460 1456 1451 1445 1441
1394 1399 1397 1394 1403 1410 1418 1422 1428 1437 1444 1453 1458 1462 1467 1473 1473 1473 1480 1481 1480 1475 1476 1477 1477 1478 1477 1476 1477 1476 1473 1471 1471 1469 1470 1469 1465 1460 1457 1452 1446 1440 1432
1386 1392 1397 1398 1393 1394 1404 1413 1421 1430 1438 1445 1452 1458 1463 1467 1469 1472 1475 1477 1476 1474 1474 1474 1473 1473 1474 1475 1474 1471 1469 1466 1465 1463 1463 1465 1458 1455 1451 1445 1441 1436 1430
1379 1382 1389 1394 1399 1399 1397 1400 1411 1424 1432 1440 1446 1453 1459 1462 1464 1467 1471 1471 1472 1472 1472 1470 1471 1470 1469 1470 1470 1470 1467 1464 1462 1458 1459 1457 1451 1447 1444 1440 1434 1428 1422
1374 1375 1377 1378 1386 1392 1397 1402 1407 1419 1430 1437 1441 1448 1455 1458 1460 1464 1466 1467 1470 1468 1469 1467 1467 1466 1466 1466 1465 1465 1462 1460 1456 1453 1452 1447 1443 1439 1437 1433 1428 1424 1415
1370 1374 1373 1377 1379 1386 1396 1403 1410 1417 1422 1433 1439 1446 1450 1454 1457 1459 1464 1464 1466 1465 1467 1464 1462 1462 1464 1461 1461 1461 1456 1455 1452 1450 1445 1441 1438 1436 1432 1429 1424 1419 1412
1364 1367 1371 1374 1379 1386 1396 1403 1408 1413 1423 1430 1437 1445 1447 1450 1454 1455 1460 1462 1460 1462 1463 1464 1462 1458 1459 1457 1455 1454 1451 1448 1445 1442 1440 1437 1435 1432 1428 1424 1419 1414 1407
1362 1366 1373 1374 1382 1389 1395 1400 1408 1415 1421 1429 1433 1439 1445 1447 1447 1451 1454 1456 1455 1458 1460 1458 1457 1456 1455 1452 1451 1448 1446 1443 1441 1439 1435 1432 1429 1426 1421 1416 1410 1406 1401
1361 1366 1373 1379 1385 1387 1393 1401 1409 1415 1421 1425 1432 1438 1441 1443 1445 1447 1449 1449 1451 1455 1454 1453 1453 1451 1450 1448 1446 1444 1440 1440 1437 1433 1430 1427 1424 1418 1413 1408 1404 1399 1392
1363 1366 1374 1379 1386 1391 1398 1403 1410 1415 1420 1425 1428 1433 1438 1441 1442 1442 1445 1444 1448 1449 1449 1447 1448 1447 1446 1444 1442 1441 1439 1436 1432 1428 1425 1421 1417 1412 1407 1403 1397 1392 1385
1365 1370 1375 1383 1389 1394 1399 1406 1412 1417 1421 1424 1427 1431 1436 1436 1438 1440 1441 1444 1447 1448 1446 1446 1447 1447 1446 1444 1442 1439 1435 1432 1428 1424 1419 1415 1410 1406 1401 1396 1391 1385 1379
1368 1373 1379 1386 1391 1396 1400 1405 1412 1417 1421 1424 1426 1428 1428 1431 1433 1436 1437 1439 1442 1442 1443 1445 1444 1443 1442 1440 1437 1434 1431 1427 1423 1418 1413 1410 1405 1400 1394 1390 1385 1380 1373
1372 1376 1381 1387 1393 1397 1401 1405 1412 1418 1420 1420 1423 1424 1425 1429 1431 1433 1435 1437 1439 1439 1440 1441 1440 1439 1438 1435 1432 1429 1426 1422 1416 1412 1408 1403 1399 1394 1388 1383 1379 1373 1366
1374 1379 1384 1389 1394 1399 1402 1407 1411 1414 1414 1417 1420 1422 1425 1427 1429 1432 1434 1435 1437 1435 1436 1437 1436 1435 1433 1430 1427 1424 1419 1414 1410 1406 1401 1396 1392 1388 1383 1378 1373 1367 1360
1377 1381 1385 1390 1395 1400 1404 1407 1408 1412 1416 1418 1418 1421 1423 1426 1428 1430 1431 1432 1433 1434 1433 1433 1432 1430 1427 1424 1421 1416 1412 1407 1403 1398 1395 1390 1386 1382 1377 1372 1366 1360 1355
1379 1382 1387 1391 1395 1398 1402 1405 1408 1412 1414 1416 1419 1421 1422 1424 1427 1427 1428 1429 1429 1429 1428 1427 1426 1423 1420 1417 1413 1409 1405 1402 1397 1393 1389 1384 1380 1376 1371 1365 1360 1354 1348
1380 1383 1388 1391 1394 1398 1401 1404 1407 1410 1413 1415 1417 1418 1419 1421 1423 1424 1425 1425 1425 1424 1423 1421 1420 1417 1413 1410 1406 1403 1399 1394 1390 1386 1382 1378 1374 1368 1364 1360 1354 1349 1343
1381 1384 1387 1390 1393 1397 1400 1403 1406 1409 1411 1413 1415 1414 1415 1417 1419 1420 1420 1421 1420 1418 1416 1414 1412 1410 1406 1402 1398 1394 1390 1386 1383 1379 1375 1371 1366 1363 1358 1354 1348 1343 1338
1381 1384 1387 1390 1393 1396 1398 1402 1404 1407 1409 1411 1412 1412 1412 1414 1415 1416 1416 1415 1413 1411 1408 1406 1403 1400 1397 1393 1390 1386 1383 1379 1376 1372 1367 1363 1360 1356 1352 1347 1343 1337 1332
1381 1384 1387 1389 1392 1395 1397 1400 1402 1404 1407 1408 1409 1409 1410 1411 1411 1411 1410 1409 1407 1404 1401 1398 1396 1393 1390 1386 1383 1380 1376 1372 1369 1365 1361 1357 1353 1349 1346 1341 1337 1332 1327
1380 1383 1385 1388 1390 1393 1396 1398 1400 1402 1403 1405 1406 1406 1407 1407 1407 1406 1405 1402 1400 1398 1395 1391 1389 1386 1383 1379 1376 1373 1369 1366 1362 1358 1355 1350 1346 1342 1339 1336 1332 1327 1321
1379 1381 1384 1386 1388 1391 1394 1396 1398 1400 1401 1402 1402 1403 1403 1403 1402 1401 1399 1396 1393 1391 1388 1385 1382 1379 1376 1372 1369 1366 1363 1359 1355 1352 1348 1344 1340 1337 1335 1331 1326 1321 1316